Regional Weather Roundup
Issued by NWS Mobile, AL

Home | Current Version | Previous Version | Text Only | Print | Product List | Glossary On
Versions: 1 2 3 4 5 6 7 8 9 10 11 12 13 14 15 16 17 18 19 20 21 22 23 24 25 26 27 28
000
ASUS44 KMOB 200012
RWRMOB
REGIONAL WEATHER ROUNDUP
NATIONAL WEATHER SERVICE MOBILE AL
700 PM CDT THU OCT 19 2017

NOTE: "FAIR" INDICATES FEW OR NO CLOUDS BELOW 12,000 FEET WITH NO
      SIGNIFICANT WEATHER AND/OR OBSTRUCTIONS TO VISIBILITY.

  * THESE STATIONS ARE PART OF THE UNIVERSITY OF SOUTH ALABAMA
    MESONET AND ARE NOT UNDER NWS OR FAA QUALITY CONTROL.

ALZ061>064-200100-
COASTAL ALABAMA

CITY           SKY/WX    TMP DP  RH WIND       PRES   REMARKS
MOBILE REG APT PTCLDY    71  61  70 N6        30.16R
6HR MIN TEMP:  71; 6HR MAX TEMP:  83;

BROOKLEY FIELD CLEAR     77  64  64 NE8       30.16R
6HR MIN TEMP:  76; 6HR MAX TEMP:  81;

USA CAMPUS*    NOT AVBL
DOG RIVER*     NOT AVBL


CITY           SKY/WX    TMP DP  RH WIND       PRES   REMARKS
GULF SHORES    CLEAR     71  61  71 N12       30.15R

$$

ALZ051>060-200100-
INTERIOR SOUTHWEST AND SOUTH CENTRAL ALABAMA

CITY           SKY/WX    TMP DP  RH WIND       PRES   REMARKS
GREENVILLE     CLEAR     66  57  72 N5        30.19R
6HR MIN TEMP:  66; 6HR MAX TEMP:  80;

EVERGREEN      CLEAR     64  61  90 N3        30.19R
6HR MIN TEMP:  64; 6HR MAX TEMP:  80;

ATMORE*          N/A    N/A N/A N/A NE6         N/A
ANDALUSIA/OPP  CLEAR     70  59  68 NE3       30.17R
6HR MIN TEMP:  70; 6HR MAX TEMP:  84;

ANDALUSIA*       N/A     70  59  68 NE3       30.18R
FLORALA APT    CLEAR     68  60  75 N6        30.19R
6HR MIN TEMP:  67; 6HR MAX TEMP:  81;

FLORALA*       NOT AVBL

$$

FLZ001>006-200100-
WESTERN FLORIDA PANHANDLE

CITY           SKY/WX    TMP DP  RH WIND       PRES   REMARKS
PENSACOLA      CLEAR     75  59  57 NE3       30.14R
6HR MIN TEMP:  75; 6HR MAX TEMP:  84;

NAS PENSACOLA  PTCLDY    70  58  65 N3        30.14R
6HR MIN TEMP:  70; 6HR MAX TEMP:  83;

MILTON         PTCLDY    66  61  84 N3        30.16R
6HR MIN TEMP:  66; 6HR MAX TEMP:  82;

WHTNG S FIELD  PTCLDY    73  56  54 N6        30.16R
6HR MIN TEMP:  73; 6HR MAX TEMP:  85;



CITY           SKY/WX    TMP DP  RH WIND       PRES   REMARKS
JAY*             N/A     70  57  64 NE3       30.17R
DUKE FIELD     PTCLDY    70  60  70 CALM      30.15R
CRESTVIEW      CLEAR     69  60  73 N3        30.17R
6HR MIN TEMP:  69; 6HR MAX TEMP:  83;

VALPARAISO     PTCLDY    74  59  59 CALM      30.14R
DESTIN         CLEAR     78  59  51 CALM      30.14R
6HR MIN TEMP:  77; 6HR MAX TEMP:  86;


$$

MSZ076-079-200100-
INTERIOR SOUTHEAST MISSISSIPPI

CITY           SKY/WX    TMP DP  RH WIND       PRES   REMARKS
LEAKESVILLE*     N/A     70  63  78 E2        30.18
AGRICOLA*      NOT AVBL

$$

MARINE OBSERVATIONS

STATION/POSITION TIME  TEMP    WIND        PRES    WAVE
                       AIR SEA DIR/SP/G            HT/PER
                 (UTC) (F)     (DEG/KT/KT) (MB)    (FT/S)
PASCAGOULA       2348   75      80/  4/  4 1020.6R
PETIT BOIS ISLND 2348   74      80/  5/  6 1021.4R
GRAND BAY        2245   76     140/  4     1021.0S
KATRINA CUT      2330   76      40/  8     1021.0R
CEDAR POINT      2330   75      40/  6     1020.3F
E DAUPHIN ISLAND 0000   75      CALM  /  1 1020.5R
MIDDLE BAY LIGHT 2330   76      50/  9     1020.7S
USCG MOBILE BAY  2348   76 75   60/  5/  8 1021.1R
STATE DOCKS      2348   76 79              1021.0R
MEAHER PARK      2330   75      30/  2     1021.0R
WEEKS BAY        2245   77                 1020.0S
FORT MORGAN      2348   76      40/  2/  2   N/A
12 S ORANGE BCH  2350   77 80   60/  8/  8 1020.2R   3/ 6
PENSACOLA BAY    2348   76 75              1020.9R
64 S DAUPHIN ISL 2350   78 82   70/ 16/ 19 1020.1R   5/ 7
67 S FORT MORGAN 2330   77      60/ 17     1019.6S

$$

SELECTED LOCATIONS ACROSS THE REGION

CITY           SKY/WX    TMP DP  RH WIND       PRES   REMARKS
NEW ORLEANS    MOCLDY    74  65  73 E9        30.13R
GULFPORT       PTCLDY    73  67  81 CALM      30.13S
PASCAGOULA AP  CLEAR     66  62  87 CALM      30.14R
PASCAGOULA*      N/A     70  64  83 CALM        N/A
HATTIESBURG    CLEAR     69  64  84 CALM      30.17R
LAUREL         CLEAR     65  61  87 NE3       30.18R
MERIDIAN       CLOUDY    66  60  81 CALM      30.19R
JACKSON        CLOUDY    67  58  72 CALM      30.17R
MONTGOMERY     CLEAR     69  54  58 N5        30.20R
TROY           CLEAR     65  61  87 NE3       30.20R
ASHFORD*         N/A     70  59  68 NE3       30.18R
DOTHAN         CLEAR     67  60  78 N5        30.21R
PANAMA CITY    CLEAR     70  60  70 N5        30.14R

$$





USA.gov is the U.S. government's official web portal to all federal, state and local government web resources and services.